Regional Weather Roundup
Issued by NWS

Home | Current Version | Previous Version | Text Only | Print | Product List | Glossary On
Versions: 1 2 3 4 5 6 7 8 9 10 11 12 13 14 15 16 17 18 19 20 21 22 23 24 25 26 27 28 29 30 31 32 33 34 35 36 37 38 39 40 41 42 43 44 45 46 47 48 49 50
000
ASUS43 KLSX 280210
RWRMO

WEATHER SUMMARY FOR MISSOURI
NATIONAL WEATHER SERVICE SPRINGFIELD MO
900 PM CDT SAT MAY 27 2017

NOTE: "FAIR" INDICATES FEW OR NO CLOUDS BELOW 12,000 FEET WITH NO
       SIGNIFICANT WEATHER AND/OR OBSTRUCTIONS TO VISIBILITY.
       CURRENT SKY AND/OR WEATHER CONDITIONS ARE NOT AVAILABLE FOR
       CHILLICOTHE AND FARMINGTON.

MOZ001>031-035>038-043-044-053-054-280300-
...NORTHERN AND WESTERN MISSOURI...

CITY           SKY/WX    TMP DP  RH WIND       PRES   REMARKS
KANSAS CTY INT MOCLDY    68  63  84 CALM      29.85R
KANSAS C DTWN  CLEAR     69  62  78 CALM      29.84R
LEE`S SUMMIT   CLOUDY    66  63  90 CALM      29.84R
ST JOSEPH      PTCLDY    68  64  87 N7        29.86R
CHILLICOTHE      N/A     70  63  78 CALM      29.82R
KIRKSVILLE     CLOUDY    68  62  81 N7        29.80R

$$
MOZ066>068-077>081-088>096-101>105-280300-
...SOUTHWEST MISSOURI...

CITY           SKY/WX    TMP DP  RH WIND       PRES   REMARKS
SPRINGFIELD    LGT RAIN  66  63  90 VRB5G20   29.71F
JOPLIN         CLOUDY    70  68  93 N10G17    29.75F
BRANSON        LGT RAIN  64  64 100 CALM      29.84S

$$
MOZ032>034-039>042-045>050-055>058-069>072-280300-
...CENTRAL MISSOURI...

CITY           SKY/WX    TMP DP  RH WIND       PRES   REMARKS
COLUMBIA       CLOUDY    62  61  96 S8        29.79S
JEFFERSON CITY CLOUDY    65  60  84 S7        29.80F
ROLLA          RAIN      64  63  96 SE8       29.79F
SEDALIA        CLOUDY    65  64  97 NW6       29.83R
WHITEMAN AFB   CLOUDY    64  64 100 N3        29.83R
WARRENSBURG    CLOUDY    64  59  82 NW3       29.83S

$$
MOZ051-052-059>065-280300-
...EAST CENTRAL MISSOURI...

CITY           SKY/WX    TMP DP  RH WIND       PRES   REMARKS
ST LOUIS INTL  CLOUDY    69  60  73 VRB3      29.76R
SPIRIT OF STL  CLOUDY    65  62  90 W5        29.77R
ST CHARLES     CLOUDY    66  62  87 NW14      29.79R

$$
MOZ072>076-082>087-097>100-106>115-280300-
...SOUTH CENTRAL AND SOUTHEAST MISSOURI...

CITY           SKY/WX    TMP DP  RH WIND       PRES   REMARKS
CAPE GIRARDEAU CLOUDY    65  61  87 E3        29.84F
POPLAR BLUFF   RAIN      64  61  90 NE18        N/A
WEST PLAINS    LGT RAIN  59  57  93 VRB3      29.90S

$$



USA.gov is the U.S. government's official web portal to all federal, state and local government web resources and services.